FENGYUN 1C DEB, 31913

Orbit data source: Space-Track

FENGYUN 1C DEB, 31913 is space debris in SSO originally from a launch on Mon, 10 May 1999 UTC launched from the Taiyaun Space Center, China (TSC). Fengyun 1C debris stems from the Chinese weather satellite Fengyun-1C, which was intentionally destroyed by a Chinese anti-satellite missile in 2007. This event dramatically increased the amount of space debris, with thousands of trackable fragments posing hazards to satellites and human spaceflight. The Fengyun 1C debris cloud has become a focal point in discussions about space sustainability and the need for international regulations to prevent the creation of new debris.

Loading next visibility...
Identifier
31913, 1999-025CLQ
Orbit
SSO
Country
Flag of CNCN / PRC
Related business
Manufacturer
Unknown
Mission
Spacecraft
Bus & Motor
Unknown
Mass
Unknown
Launch date (UTC)
1999-05-10 (27 years ago)
Launch vehicle
Unknown
Launch site
Taiyaun Space Center, China (TSC)
Object type
Payload
Rocket body
Debris
Shape & HBR
Unknown shape, 0.1 m
Radar Cross Section
Medium (>0.1 m² and <1 m²)

Expand to show TLE details & history
Last TLE update: 20 hours ago

TLE from 20 hours ago
0 FENGYUN 1C DEB
1 31913U 99025CLQ 26166.54478923  .00002841  00000-0  19421-2 0  9999
2 31913  99.2905  93.1329 0179442 168.6057 191.9249 13.93082045584580
Epoch: 2026-06-15T13:04Z
TLE epoch observation values (Epoch: 2026-06-15T13:04:29.789Z)
Latitude
0.00003°
Longitude
-6.82087°
Altitude
1,048.928 km
Speed
7.263 km/s
True Right ascension
06h 12m 31s
True Declination
0° 00' 00"
Sunlit
Object was in daylight at epoch
Visualization orbit readout
Latitude
Unknown
Longitude
Unknown
Altitude
Unknown
Speed
Unknown
Apparent Right ascension
Unknown
Apparent Declination
Unknown
Sunlit
N/A
Visualization observer readout
Local Sidereal Time
19:48:36
Azimuth
Unknown
Elevation
Unknown
Doppler factor
Unknown
Orbital elements
Apogee altitude
1,045.942 km
Perigee altitude
784.201 km
Semi-major axis
7,293.209 km
Eccentricity
0.01794
Inclination
99.2905°
RAAN
93.1329°
Arg. of periapsis
168.6057°
True anomaly
191.50915°
Mean anomaly
191.9249°
Eccentric anomaly
191.71613°
Mean motion
3.4847 °/min
Orbital period
103.31 mins
BSTAR
0.0019421
Loading maneuver chart data...
Computing Atmospheric mass density...

Documentation

Showing up to 5 results
|